0 HST 1 20580U 90037B 26062.15651664 .00008766 00000-0 29119-3 0 9996 2 20580 28.4701 84.5634 0001675 60.3567 299.7195 15.29358901772310 0 ISS (ZARYA) 1 25544U 98067A 26061.93054995 .00009325 00000-0 18075-3 0 9992 2 25544 51.6319 105.7724 0008215 150.8374 209.3074 15.48408287555284 0 CXO 1 25867U 99040B 26063.59985680 .00000824 00000-0 00000-0 0 9991 2 25867 54.4843 119.7682 8003286 310.7757 0.4217 0.37808937 16926